This is the latest recevied weather packets stored in our database for station/object NK2J. If no packets are shown the sender has not sent any weather packets the latest 1 day(s).
| Time | Temp. | Humidity | Pressure | Rain* | Wind** | Luminosity | Snow |
|---|---|---|---|---|---|---|---|
| 1778073018 | 12.78° C | 52% | 1017.2 hPa | 0 mm | - | 21 W/m² | - |
| 1778070901 | 12.22° C | 53% | 1016.7 hPa | 0 mm | - | 3 W/m² | - |
| 1778069387 | 12.78° C | 53% | 1016.4 hPa | 0 mm | - | 0 W/m² | - |
| 1778068178 | 12.78° C | 57% | 1016.3 hPa | 0 mm | - | 0 W/m² | - |
| 1778067875 | 12.78° C | 57% | 1016.4 hPa | 0 mm | - | 0 W/m² | - |
| 1778067271 | 13.33° C | 55% | 1016.3 hPa | 0 mm | - | 0 W/m² | - |
| 1778066967 | 13.33° C | 55% | 1016.3 hPa | 0 mm | - | 0 W/m² | - |
| 1778066665 | 13.33° C | 55% | 1016.4 hPa | 0 mm | - | 0 W/m² | - |
| 1778066362 | 13.33° C | 56% | 1016.3 hPa | 0 mm | - | 0 W/m² | - |
| 1778065757 | 13.89° C | 57% | 1016.3 hPa | 0 mm | - | 0 W/m² | - |
| 1778065151 | 13.33° C | 61% | 1016.3 hPa | 0 mm | - | 0 W/m² | - |
| 1778064545 | 13.89° C | 62% | 1016.1 hPa | 0 mm | - | 0 W/m² | - |
| 1778062729 | 14.44° C | 60% | 1015.9 hPa | 0 mm | - | 0 W/m² | - |
| 1778060913 | 15° C | 59% | 1015.8 hPa | 0 mm | - | 0 W/m² | - |
| 1778060310 | 15° C | 58% | 1015.8 hPa | 0 mm | - | 0 W/m² | - |
| 1778059402 | 15° C | 57% | 1015.6 hPa | 0 mm | - | 0 W/m² | - |
| 1778058796 | 15° C | 57% | 1015.6 hPa | 0 mm | - | 0 W/m² | - |
| 1778058494 | 15° C | 56% | 1015.7 hPa | 0 mm | - | 0 W/m² | - |
| 1778058191 | 14.44° C | 57% | 1015.5 hPa | 0 mm | - | 0 W/m² | - |
| 1778057584 | 15° C | 56% | 1015.6 hPa | 0 mm | - | 0 W/m² | - |
| 1778056977 | 15° C | 56% | 1015.5 hPa | 0 mm | - | 0 W/m² | - |
| 1778056674 | 15° C | 53% | 1015.6 hPa | 0 mm | - | 0 W/m² | - |
| 1778056069 | 15.56° C | 53% | 1015.5 hPa | 0 mm | - | 0 W/m² | - |
| 1778055764 | 15.56° C | 52% | 1015.6 hPa | 0 mm | - | 0 W/m² | - |
| 1778055462 | 15.56° C | 52% | 1015.5 hPa | 0 mm | - | 0 W/m² | - |
* Rain latest hour (hover to see other rain measurements)
** Current wind speed in m/s (hover to see current wind gust speed)